Location: D�pe
(52.6057°N, 8.1808°E)
Time: 14:34:13
(UTC+00:00)

CZ-4 R/B - Pass Details

Date: 29 October 2020
Orbit: 579 x 589 km, 97.8° (Epoch: 29 November)

Event Time Altitude Azimuth Distance (km) Brightness Sun altitude
Rises 17:17:35 0° 155° (SSE) 2,812 7.8 -11.9°
Reaches altitude 10° 17:19:45 10° 153° (SSE) 1,917 6.9 -12.2°
Maximum altitude 17:23:52 64° 72° (ENE) 657 4.4 -12.8°
Drops below altitude 10° 17:28:01 10° 351° (N) 1,931 7.1 -13.5°
Sets 17:30:12 0° 348° (NNW) 2,836 8.0 -13.8°
